Houston, TX

4:23 AM CST on December 06, 2016 (GMT -0600)
Hobby

Weather History for KHOU - November, 2012

Change the Weather History Date:

Wednesday, November 28, 2012

  Actual Average Record
Temperature  
Mean Temperature 54 °F 58 °F  
Max Temperature 67 °F 68 °F 83 °F (1977)
Min Temperature 40 °F 48 °F 26 °F (1976)
Degree Days  
Heating Degree Days 11 8  
Month to date heating degree days 118 138  
Since 1 July heating degree days 158 168  
Growing Degree Days 6 (Base 50)    
Moisture  
Dew Point 42 °F    
Average Humidity 66    
Maximum Humidity 100    
Minimum Humidity 32    
Precipitation  
Precipitation 0.00 in 0.14 in 1.82 in (2001)
Month to date precipitation 0.65 4.04  
Year to date precipitation 39.47 45.73  
Sea Level Pressure  
Sea Level Pressure 30.37 in    
Wind  
Wind Speed 5 mph (NE)    
Max Wind Speed 9 mph    
Max Gust Speed 26 mph    
Visibility 10 miles    
Events Fog    
T = Trace of Precipitation, MM = Missing Value Source: NWS Daily Summary

Daily Weather History Graph

Daily Weather History Graph

Search for Another Location

Airport or City:

Trip Planner

Search our weather history database for the weather conditions in past years. The results will help you decide how hot, cold, wet, or windy it might be!

Date:

Astronomy

Nov. 28, 2012 Rise Set
Actual Time 6:56 AM CST 5:21 PM CST
Civil Twilight 6:30 AM CST 5:47 PM CST
Nautical Twilight 6:01 AM CST 6:16 PM CST
Astronomical Twilight 5:32 AM CST 6:45 PM CST
Moon 5:37 PM CST (11/28) 6:54 AM CST (11/28)
Length of Visible Light 11h 16m
Length of Day
10h 25m
Full, 100% of the Moon is Illuminated
Nov 28
Full
Dec 6
Last Quarter
Dec 13
New
Dec 19
First Quarter
Dec 28
Full

Hourly Weather History & Observations

Time (CST) Temp. Windchill Dew Point Humidity Pressure Visibility Wind Dir Wind Speed Gust Speed Precip Events Conditions
12:53 AM 48.0 °F - 44.1 °F 86% 30.35 in 10.0 mi North 5.8 mph - N/A   Clear
1:53 AM 46.9 °F - 43.0 °F 86% 30.34 in 10.0 mi North 4.6 mph - N/A   Clear
2:53 AM 46.9 °F - 43.0 °F 86% 30.35 in 10.0 mi North 4.6 mph - N/A   Clear
3:53 AM 46.9 °F - 43.0 °F 86% 30.36 in 10.0 mi North 3.5 mph - N/A   Clear
4:53 AM 45.0 °F 41.8 °F 42.1 °F 90% 30.37 in 9.0 mi North 5.8 mph - N/A   Clear
5:53 AM 45.0 °F 41.8 °F 42.1 °F 90% 30.39 in 10.0 mi NNE 5.8 mph - N/A   Clear
6:53 AM 45.0 °F 41.8 °F 42.1 °F 90% 30.41 in 10.0 mi NE 5.8 mph - N/A   Partly Cloudy
7:53 AM 48.9 °F - 43.0 °F 80% 30.44 in 10.0 mi NNE 4.6 mph - N/A   Partly Cloudy
8:53 AM 52.0 °F - 43.0 °F 71% 30.46 in 10.0 mi NNE 5.8 mph - N/A   Partly Cloudy
9:53 AM 55.9 °F - 41.0 °F 57% 30.48 in 10.0 mi NE 8.1 mph - N/A   Partly Cloudy
10:53 AM 60.1 °F - 42.1 °F 51% 30.45 in 10.0 mi NNE 5.8 mph - N/A   Clear
11:53 AM 63.0 °F - 41.0 °F 45% 30.42 in 10.0 mi NNE 8.1 mph - N/A   Clear
12:53 PM 66.0 °F - 37.0 °F 34% 30.38 in 10.0 mi NE 8.1 mph - N/A   Clear
1:53 PM 66.0 °F - 39.0 °F 37% 30.35 in 10.0 mi NE 8.1 mph - N/A   Clear
2:53 PM 68.0 °F - 37.9 °F 33% 30.32 in 10.0 mi East 6.9 mph - N/A   Clear
3:53 PM 66.9 °F - 37.9 °F 34% 30.32 in 10.0 mi ENE 5.8 mph - N/A   Clear
4:53 PM 64.0 °F - 39.0 °F 40% 30.32 in 10.0 mi SE 4.6 mph - N/A   Clear
5:53 PM 59.0 °F - 39.9 °F 49% 30.32 in 10.0 mi SE 4.6 mph - N/A   Clear
6:53 PM 57.0 °F - 43.0 °F 59% 30.34 in 10.0 mi SE 4.6 mph - N/A   Clear
7:53 PM 54.0 °F - 45.0 °F 72% 30.35 in 10.0 mi SE 4.6 mph - N/A   Clear
8:53 PM 52.0 °F - 46.0 °F 80% 30.36 in 10.0 mi Calm Calm - N/A   Clear
9:53 PM 48.9 °F - 44.1 °F 83% 30.35 in 10.0 mi Calm Calm - N/A   Clear
10:53 PM 48.0 °F - 44.1 °F 86% 30.35 in 10.0 mi Calm Calm - N/A Fog Patches of Fog
11:53 PM 48.0 °F - 44.1 °F 86% 30.32 in 10.0 mi Calm Calm - N/A   Clear